Location: Nelson
(41.2830°S, 173.2830°E)
Time: 10:12:58
(UTC+12:00)

Cosmos 1862 Rocket - Pass Details

Date: 24 January 2019
Orbit: 603 x 635 km, 82.5° (Epoch: 19 April)

Event Time Altitude Azimuth Distance (km) Brightness Sun altitude
Exits shadow 23:23:38 38° 100° (E) 960 4.3 -21.9°
Drops below altitude 10° 23:27:27 10° 157° (SSE) 2,014 6.6 -22.3°
Sets 23:29:47 0° 164° (SSE) 2,923 7.6 -22.5°
